www.pogodaiklimat.ru

Погода и климат >> Архив погоды >> КНДР >> Wonsan


ПОГОДА в Wonsan

  • Прогноз погоды в Wonsan
  • Монитор погоды в Wonsan
  • Климат города

АРХИВ ПОГОДЫ в Wonsan

Время (UTC), дата Ветер
(напр.,м/с)
 
Видим.   Явления Облачность Т
(С)
Тd
(С)
f
(%)
Тe
(С)
Тes
(С)
Комфортность P
(гПа)
Po
(гПа)
Тmin
(С)
Tmax
(С)
R
(мм)
R24
(мм)
S
(см)
00 14.09 штиль 0 20 км 10/0
[Ci fib]
+18.4 +16.8 90 +19 +25 1018.5 1014.2 +16.5
03 14.09 штиль 0 10 км 10/0 1500 м
[Ac und]
+22.9 +18.9 78 +29 +34 очень
душно
1018.5 1014.2
06 14.09 СВ 1 20 км 8/0 1500 м
[Ac und]
+22.8 +18.9 79 +29 +33 очень
душно
1017.8 1013.5
09 14.09 штиль 0 20 км 10/10 600 м
[Sc]
+21.7 +19.4 87 +27 +27 душно 1017.2 1012.9
12 14.09 З 1 20 км 10/10 600 м
[Sc]
+21.0 +19.4 91 +27 +27 душно 1017.4 1013.1 +24.8
15 14.09 З 1 20 км 10/10 600 м
[Sc]
+20.6 +19.2 92 +26 +26 душно 1017.2 1012.9
18 14.09 штиль 0 20 км 10/10 600 м
[Sc]
+20.3 +19.4 95 +24 +24 комфорт 1016.6 1012.1
21 14.09 штиль 0 20 км 10/10 600 м
[Sc]
+20.0 +19.4 96 +23 +23 комфорт 1016.4 1012.1
00 15.09 штиль 0 10 км 10/1 600 м
[Sc Ac As]
+22.0 +19.7 87 +28 +30 душно 1015.9 1011.6 +19.5
03 15.09 штиль 0 10 км 9/1 600 м
[Sc As trans]
+23.5 +19.4 78 +29 +36 душно 1014.9 1010.6
06 15.09 штиль 0 20 км 8/0
[Ac trans]
+24.2 +20.2 78 +30 +36 очень
душно
1013.1 1008.9
09 15.09 штиль 0 20 км 10/0
[Ac und]
+23.3 +20.1 82 +30 +30 очень
душно
1012.7 1008.5
12 15.09 штиль 0 20 км 10/0
[Ac und]
+22.7 +18.7 78 +28 +28 душно 1013.0 1008.8 +25.7
15 15.09 штиль 0 20 км 10/0
[Ac und]
+21.8 +18.9 84 +27 +27 душно 1013.0 1008.8
18 15.09 штиль 0 20 км 10/0
[Ac und]
+21.0 +18.1 84 +25 +25 комфорт 1013.0 1008.8
21 15.09 штиль 0 20 км 10/10 600 м
[Sc]
+20.2 +18.3 89 +23 +23 комфорт 1014.2 1010.0
00 16.09 штиль 0 10 км 10/0
[As trans]
+21.9 +19.6 87 +27 +30 душно 1016.0 1011.8 +19.6
03 16.09 штиль 0 10 км 10/0
[As trans]
+23.7 +20.3 81 +29 +36 душно 1015.2 1011.0
06 16.09 СВ 1 20 км 10/0
[As trans]
+22.0 +19.1 84 +27 +31 душно 1015.2 1011.0
09 16.09 СВ 1 20 км 10/0
[As trans]
+21.9 +19.2 85 +27 +27 душно 1014.6 1010.4
12 16.09 штиль 0 20 км 10/0
[As trans]
+20.7 +19.3 92 +25 +25 комфорт 1014.4 1010.1 +25.1
15 16.09 З 2 20 км 10/0
[As trans]
+21.1 +15.6 71 +24 +24 комфорт 1014.9 1010.6
18 16.09 штиль 0 20 км ясно +19.0 +15.0 78 +20 +20 1015.1 1010.8
21 16.09 штиль 0 20 км ясно +17.2 +13.7 80 +17 +17 1014.2 1011.4
00 17.09 штиль 0 20 км ясно +21.6 +14.1 62 +24 +31 комфорт 1017.2 1012.9 +16.0
03 17.09 штиль 0 20 км ясно +23.3 +13.1 53 +26 +44 жарко 1017.2 1012.9
06 17.09 штиль 0 20 км 3/0
[Ci fib]
+25.9 +9.9 36 +27 +37 жарко 1015.2 1010.9
09 17.09 штиль 0 20 км ясно +25.7 +14.9 51 +28 +29 жарко 1015.7 1011.4
12 17.09 З 2 20 км 3/0
[Ci fib]
+20.6 +10.7 53 +23 +23 комфорт 1016.2 1011.9 +27.4
15 17.09 штиль 0 20 км 3/0
[Ci fib]
+18.8 +10.8 60 +19 +19 1017.8 1013.5
18 17.09 Ю 1 20 км 3/0
[Ci fib]
+16.8 +11.3 70 +18 +18 1016.2 1011.9
21 17.09 штиль 0 20 км 3/0
[Ci fib]
+15.9 +11.3 74 +16 +16 1016.2 1011.9
00 18.09 штиль 0 20 км 10/0
[Ac und]
+18.2 +12.3 68 +18 +20 1018.5 1014.2 +15.4
03 18.09 штиль 0 20 км 5/0
[Ac und Ci fib]
+23.8 +13.5 52 +26 +39 жарко 1018.0 1013.7
06 18.09 В 1 20 км 5/0
[Ac und Ci fib]
+23.5 +15.7 62 +27 +34 душно 1016.3 1012.1
09 18.09 В 1 20 км 4/0
[Ci fib]
+21.8 +16.8 73 +26 +26 душно 1015.6 1011.4
12 18.09 штиль 0 20 км 9/0 1500 м
[Ac und]
+18.8 +16.4 86 +20 +20 1016.1 1011.9 +25.1
15 18.09 штиль 0 20 км 3/0 1500 м
[Ac und]
+17.5 +15.7 89 +17 +17 1016.1 1011.9
18 18.09 штиль 0 20 км ясно +16.6 +14.9 90 +16 +16 1015.6 1011.4
21 18.09 штиль 0 20 км ясно +15.3 +14.1 93 +15 +15 1015.6 1011.4
00 19.09 штиль 0 20 км ясно +19.5 +14.7 74 +21 +28 комфорт 1016.7 1012.5 +14.8
03 19.09 штиль 0 20 км 1/0
[Ci fib]
+22.2 +16.4 70 +26 +44 душно 1015.3 1011.1
06 19.09 СВ 2 20 км 8/0
[Ci fib]
+23.1 +18.5 75 +29 +36 очень
душно
1013.2 1009.0
09 19.09 СВ 1 20 км 10/0
[Ac und]
+21.8 +18.3 81 +27 +27 душно 1013.2 1009.0
12 19.09 З 1 20 км 10/0
[Ac und]
+19.9 +18.1 89 +24 +24 комфорт 1014.6 1010.4 +24.0
15 19.09 штиль 0 20 км 10/0
[Ac und]
+19.9 +17.6 87 +22 +22 комфорт 1013.8 1009.6
18 19.09 штиль 0 20 км 10/0
[Ac und]
+19.2 +17.1 88 +21 +21 комфорт 1012.6 1008.3
21 19.09 штиль 0 15 км слабый дождь 10/0 600 м
[As op]
+18.6 +17.4 93 +20 +20 1012.9 1008.6
00 20.09 штиль 0 15 км слабый дождь 10/0 600 м
[As op]
+18.8 +17.6 93 +20 +21 1013.4 1009.1 +18.3 3
03 20.09 штиль 0 15 км слабый дождь 10/0 600 м
[As op]
+19.9 +18.8 93 +23 +26 комфорт 1013.4 1009.1
06 20.09 штиль 0 20 км 10/10 600 м
[Sc]
+21.4 +17.6 79 +26 +26 душно 1012.4 1008.1
09 20.09 В 2 20 км 10/10 600 м
[Sc]
+20.8 +16.3 75 +25 +25 комфорт 1013.2 1008.9
12 20.09 штиль 0 20 км 10/10 600 м
[Sc]
+19.6 +17.2 86 +22 +22 комфорт 1014.4 1010.1 +22.0 2
15 20.09 штиль 0 20 км 10/10 600 м
[Sc]
+19.0 +17.0 88 +20 +20 1013.4 1009.1
18 20.09 З 2 20 км 10/10 600 м
[Sc]
+18.4 +17.3 93 +20 +20 1013.4 1009.1
21 20.09 штиль 0 10 км дождь 10/0 600 м
[As op]
+17.9 +17.4 97 +18 +18 1012.3 1008.0

 

Местоположение метеостанции Wonsan (КНДР): широта 39.18 долгота 127.43 высота над уровнем моря 36 м.

В архиве по умолчанию представлена погода в Wonsan за последнюю неделю. Архивные данные за месяц целиком и за предыдущие месяцы, начиная с января 2011 года, Вы можете получить, выбрав интересующий диапазон дат из раскрывающегося списка и нажав кнопку "Ввод!".


*Определитесь, кто Вы:
робот инопланетянин человек

Внимание! Время в таблицах - всемирное. Для получения местного времени необходимо прибавить поправку, которая в Wonsan равна 9 ч.

Смотрите также архив погоды в соседних городах и на ближайших метеорологических станциях:

Погода в Yangdok (КНДР) (67 км)
Погода в Changjon (КНДР) (82 км)
Погода в Hamhung (КНДР) (84 км)
Погода в Pyonggang (КНДР) (86 км)
Погода в Singye (КНДР) (109 км)
Погода в Sinpo (КНДР) (114 км)
Погода в Cheorwon (Корея) (115 км)
Погода в Changjin (КНДР) (133 км)
Погода в Sokcho (Корея) (143 км)
Погода в Pyongyang (КНДР) (143 км)

Пояснения к столбцам:

Ветер - указаны скорость ветра в м/с - средняя за 10 мин, порывы в срок и между сроками (в фигурных скобках) и направление, откуда дует ветер: С - северный, СВ - северо-восточный, В - восточный, ЮВ - юго-восточный, Ю - южный, ЮЗ - юго-западный, З - западный, СЗ - северо-западный.
Видимость - горизонтальная дальность видимости в метрах или километрах. При видимости от 1 до 10 км при отсутствии осадков обычно наблюдается дымка, при ухудшении видимости до 1 км и менее - туман. В сухую погоду видимость может ухудшаться дымом, пылью или мглою.
Явления - указаны атмосферные явления, наблюдавшиеся в срок или в последний час перед сроком; фигурными скобками обозначены явления, наблюдавшиеся между сроками (за 1-3 часа до срока); квадратными скобками обозначены град или гололедные отложения с указанием их диаметра в мм.
Облачность - указаны через наклонную черту общая и нижняя облачность в баллах и высота нижней границы облаков в метрах; квадратными скобками обозначены формы облаков: Ci - перистые, Cs - перисто-слоистые, Cc - перисто-кучевые, Ac - высококучевые, As - высокослоистые, Sc - слоисто-кучевые, Ns - слоисто-дождевые, Cu - кучевые, Cb - кучево-дождевые. Подробнее классификацию облаков см. в Атласе облаков (PDF).
T - Температура воздуха - температура, измеренная на высоте 2 м над землей.
Td - Температура точки росы - температура, при понижении до которой содержащийся в воздухе водяной пар достигнет насыщения.
f - Относительная влажность воздуха - влажноcть воздуха, измеренная на высоте 2 м над землей.
Te - Эффективная температура - температура, которую ощущает одетый по сезону человек в тени. Характеристика душности погоды. При расчете учитывается влияние влажности воздуха и скорости ветра на теплоощущения человека.
Tes - Эффективная температура на солнце - температура, которую ощущает человек, с поправкой на солнечный нагрев. Характеристика знойности погоды. Зависит от высоты солнца над горизонтом, облачности и скорости ветра. Ночью, в пасмурную погоду, а также при ветре 12 м/с и более поправка равна нулю.
P - Атмосферное давление - приведенное к уровню моря атмосферное давление.
Po - Атмосферное давление - измеренное на уровне метеостанции атмосферное давление.
Tmin - Минимальная температура - минимум температуры воздуха на высоте 2 м над землей.
Tmax - Максимальная температура - максимум температуры воздуха на высоте 2 м над землей.
R - Количество осадков - Количество выпавших осадков за период времени, мм. При наведении курсора мыши на число - период времени, за который выпало указанное количество осадков.
R24 - Количество осадков - Количество выпавших осадков за 24 часа, мм.
S - Снежный покров - Высота снежного покрова, см. При наведении курсора мыши на число - состояние снежного покрова и степень покрытия местности в баллах.